SL-14 DEB, 45287

Orbit data source: Space-Track

SL-14 DEB, 45287 is space debris in LEO originally from a launch on Thu, 15 Aug 1991 UTC launched from the Plesetsk Missile And Space Complex (PKMTR). Debris objects in space refer to the collection of defunct objects orbiting the Earth. Examples of debris include non-operational satellites, rocket bodies, and fragments generated from explosions, collisions, or faulty payload assembly.

Loading next visibility...
Identifier
45287, 1991-056Z
Orbit
LEO
Country
Flag of CISCIS
Related business
Manufacturer
Unknown
Mission
Spacecraft
Bus & Motor
Unknown
Mass
Unknown
Launch date (UTC)
1991-08-15 (34 years ago)
Launch vehicle
Unknown
Launch site
Plesetsk Missile And Space Complex (PKMTR)
Object type
Payload
Rocket body
Debris
Shape & HBR
Unknown shape, 0.1 m
Radar Cross Section
Small (<0.1 m²)

Expand to show TLE details & history
Last TLE update: 14 hours ago

TLE from 14 hours ago
0 SL-14 DEB
1 45287U 91056Z   26035.44433641  .00000600  00000-0  11865-2 0  9991
2 45287  82.5710 196.7338 0074975 254.8116 104.4715 13.32881828289844
Epoch: 2026-02-04T10:39Z
TLE epoch observation values (Epoch: 2026-02-04T10:39:50.665Z)
Latitude
-0.00008°
Longitude
-97.83814°
Altitude
1,153.219 km
Speed
7.269 km/s
True Right ascension
13h 06m 56s
True Declination
0° 00' 00"
Sunlit
Object was in daylight at epoch
Visualization orbit readout
Latitude
Unknown
Longitude
Unknown
Altitude
Unknown
Speed
Unknown
Apparent Right ascension
Unknown
Apparent Declination
Unknown
Sunlit
N/A
Visualization observer readout
Local Sidereal Time
02:26:59
Azimuth
Unknown
Elevation
Unknown
Doppler factor
Unknown
Orbital elements
Apogee altitude
1,189.45 km
Perigee altitude
1,076.819 km
Semi-major axis
7,511.271 km
Eccentricity
0.0075
Inclination
82.571°
RAAN
196.7338°
Arg. of periapsis
254.8116°
True anomaly
105.30142°
Mean anomaly
104.4715°
Eccentric anomaly
104.88666°
Mean motion
3.33406 °/min
Orbital period
107.98 mins
BSTAR
0.0011865
Loading maneuver chart data...
Computing Atmospheric mass density...
Loading historical data...
Loading historical data...
Loading historical data...
Loading historical data...
Loading historical data...
Loading historical data...
Loading historical data...

Documentation

Showing up to 5 results
|